Time,TemperatureF,DewpointF,PressureIn,WindDirection,WindDirectionDegrees,WindSpeedMPH,WindSpeedGustMPH,Humidity,HourlyPrecipIn,Conditions,Clouds,dailyrainin,SoftwareType,DateUTC
2018-01-18 00:01:00,47.7,38.3,30.15,West,275,3.6,5.4,70,0.00,,,0.00,meteobridge,2018-01-18 08:01:00,
2018-01-18 00:06:00,47.7,38.3,30.15,NW,324,4.3,5.1,70,0.00,,,0.00,meteobridge,2018-01-18 08:06:00,
2018-01-18 00:12:00,47.8,38.1,30.15,WNW,303,2.0,3.6,69,0.00,,,0.00,meteobridge,2018-01-18 08:12:00,
2018-01-18 00:16:00,47.8,38.1,30.15,WNW,287,3.6,4.3,69,0.00,,,0.00,meteobridge,2018-01-18 08:16:00,
2018-01-18 00:22:00,47.8,37.8,30.15,WNW,297,3.6,6.5,68,0.00,,,0.00,meteobridge,2018-01-18 08:22:00,
2018-01-18 00:27:00,47.8,37.8,30.15,WNW,302,5.8,6.5,68,0.00,,,0.00,meteobridge,2018-01-18 08:27:00,
2018-01-18 00:33:00,48.0,37.9,30.14,SSW,193,1.3,3.1,68,0.00,,,0.00,meteobridge,2018-01-18 08:33:00,
2018-01-18 00:38:00,48.2,37.8,30.14,SW,231,2.9,5.4,67,0.00,,,0.00,meteobridge,2018-01-18 08:38:00,
2018-01-18 00:43:00,48.6,38.5,30.14,West,277,1.8,2.9,68,0.00,,,0.00,meteobridge,2018-01-18 08:43:00,
2018-01-18 00:48:00,48.4,37.9,30.14,WNW,300,4.3,4.3,67,0.00,,,0.00,meteobridge,2018-01-18 08:48:00,
2018-01-18 00:53:00,48.9,38.1,30.14,NW,308,4.0,5.4,66,0.00,,,0.00,meteobridge,2018-01-18 08:53:00,
2018-01-18 00:59:00,50.2,38.8,30.13,NW,315,4.7,6.3,65,0.00,,,0.00,meteobridge,2018-01-18 08:59:00,
2018-01-18 01:04:00,51.3,39.0,30.13,WNW,299,2.9,5.4,63,0.00,,,0.00,meteobridge,2018-01-18 09:04:00,
2018-01-18 01:09:00,52.2,39.2,30.13,SSE,147,2.9,6.5,61,0.00,,,0.00,meteobridge,2018-01-18 09:09:00,
2018-01-18 01:14:00,52.7,39.2,30.14,NNW,337,2.9,5.4,60,0.00,,,0.00,meteobridge,2018-01-18 09:14:00,
2018-01-18 01:19:00,53.1,39.6,30.14,NNE,15,1.3,4.3,60,0.00,,,0.00,meteobridge,2018-01-18 09:19:00,
2018-01-18 01:25:00,53.1,39.6,30.14,SE,133,2.5,4.7,60,0.00,,,0.00,meteobridge,2018-01-18 09:25:00,
2018-01-18 01:30:00,53.2,39.7,30.14,SE,141,3.1,7.4,60,0.00,,,0.00,meteobridge,2018-01-18 09:30:00,
2018-01-18 01:35:00,53.6,40.1,30.14,SSE,153,1.8,6.3,60,0.00,,,0.00,meteobridge,2018-01-18 09:35:00,
2018-01-18 01:41:00,53.6,39.6,30.14,South,171,3.1,5.8,59,0.00,,,0.00,meteobridge,2018-01-18 09:41:00,
2018-01-18 01:47:00,53.2,39.7,30.15,SSE,156,3.1,7.4,60,0.00,,,0.00,meteobridge,2018-01-18 09:47:00,
2018-01-18 01:52:00,53.6,39.6,30.15,SE,139,3.1,7.4,59,0.00,,,0.00,meteobridge,2018-01-18 09:52:00,
2018-01-18 01:56:00,53.8,39.7,30.15,SSE,151,6.3,6.3,59,0.00,,,0.00,meteobridge,2018-01-18 09:56:00,
2018-01-18 02:01:00,53.8,39.7,30.14,NW,306,3.6,5.1,59,0.00,,,0.00,meteobridge,2018-01-18 10:01:00,
2018-01-18 02:06:00,53.4,39.4,30.14,East,86,2.0,2.5,59,0.00,,,0.00,meteobridge,2018-01-18 10:06:00,
2018-01-18 02:11:00,53.2,39.2,30.14,ESE,109,2.5,4.0,59,0.00,,,0.00,meteobridge,2018-01-18 10:11:00,
2018-01-18 02:17:00,53.1,39.6,30.12,WSW,248,2.0,2.9,60,0.00,,,0.00,meteobridge,2018-01-18 10:17:00,
2018-01-18 02:22:00,52.3,39.4,30.12,WNW,289,2.0,2.5,61,0.00,,,0.00,meteobridge,2018-01-18 10:22:00,
2018-01-18 02:26:00,52.0,39.4,30.12,NNW,331,1.8,1.8,62,0.00,,,0.00,meteobridge,2018-01-18 10:26:00,
2018-01-18 02:32:00,51.3,39.0,30.12,NW,310,2.9,4.3,63,0.00,,,0.00,meteobridge,2018-01-18 10:32:00,
2018-01-18 02:36:00,50.7,39.0,30.12,SW,230,2.0,5.4,64,0.00,,,0.00,meteobridge,2018-01-18 10:36:00,
2018-01-18 02:41:00,50.4,38.7,30.12,WNW,285,5.8,6.3,64,0.00,,,0.00,meteobridge,2018-01-18 10:41:00,
2018-01-18 02:46:00,50.2,38.8,30.12,West,278,2.5,5.4,65,0.00,,,0.00,meteobridge,2018-01-18 10:46:00,
2018-01-18 02:52:00,49.8,38.5,30.12,West,259,4.0,7.4,65,0.00,,,0.00,meteobridge,2018-01-18 10:52:00,
2018-01-18 02:57:00,49.8,38.5,30.12,NW,308,4.3,4.3,65,0.00,,,0.00,meteobridge,2018-01-18 10:57:00,
2018-01-18 03:02:00,50.0,38.7,30.12,WNW,291,2.0,6.3,65,0.00,,,0.00,meteobridge,2018-01-18 11:02:00,
2018-01-18 03:08:00,49.8,38.5,30.12,SSE,158,1.3,5.1,65,0.00,,,0.00,meteobridge,2018-01-18 11:08:00,
2018-01-18 03:12:00,49.5,38.7,30.12,NW,324,2.5,4.0,66,0.00,,,0.00,meteobridge,2018-01-18 11:12:00,
2018-01-18 03:18:00,49.1,38.3,30.12,WNW,299,4.7,5.8,66,0.00,,,0.00,meteobridge,2018-01-18 11:18:00,
2018-01-18 03:22:00,48.9,38.5,30.12,North,8,5.1,6.3,67,0.00,,,0.00,meteobridge,2018-01-18 11:22:00,
2018-01-18 03:28:00,50.0,38.7,30.11,West,273,4.0,5.8,65,0.00,,,0.00,meteobridge,2018-01-18 11:28:00,
2018-01-18 03:34:00,50.5,38.8,30.11,WNW,298,1.8,4.0,64,0.00,,,0.00,meteobridge,2018-01-18 11:34:00,
2018-01-18 03:38:00,50.5,38.8,30.11,NW,306,4.0,5.1,64,0.00,,,0.00,meteobridge,2018-01-18 11:38:00,
2018-01-18 03:44:00,50.2,38.5,30.11,NW,314,5.4,7.6,64,0.00,,,0.00,meteobridge,2018-01-18 11:44:00,
2018-01-18 03:49:00,49.8,38.5,30.11,WSW,247,2.0,2.5,65,0.00,,,0.00,meteobridge,2018-01-18 11:49:00,
2018-01-18 03:54:00,49.5,38.7,30.11,WSW,247,1.3,1.8,66,0.00,,,0.00,meteobridge,2018-01-18 11:54:00,
2018-01-18 03:59:00,48.9,38.5,30.11,WSW,247,1.8,2.0,67,0.00,,,0.00,meteobridge,2018-01-18 11:59:00,
2018-01-18 04:05:00,48.4,38.3,30.11,SSE,167,1.8,2.0,68,0.00,,,0.00,meteobridge,2018-01-18 12:05:00,
2018-01-18 04:11:00,47.5,37.8,30.11,WNW,290,4.7,6.3,69,0.00,,,0.00,meteobridge,2018-01-18 12:11:00,
2018-01-18 04:16:00,46.9,37.6,30.10,West,265,2.9,5.1,70,0.00,,,0.00,meteobridge,2018-01-18 12:16:00,
2018-01-18 04:21:00,46.4,37.6,30.10,NW,308,3.6,3.6,71,0.00,,,0.00,meteobridge,2018-01-18 12:21:00,
2018-01-18 04:26:00,46.0,37.6,30.10,South,189,2.0,4.3,72,0.00,,,0.00,meteobridge,2018-01-18 12:26:00,
2018-01-18 04:31:00,45.9,37.4,30.10,West,266,2.5,3.1,72,0.00,,,0.00,meteobridge,2018-01-18 12:31:00,
2018-01-18 04:36:00,45.7,37.2,30.10,NW,308,1.8,2.5,72,0.00,,,0.00,meteobridge,2018-01-18 12:36:00,
2018-01-18 04:41:00,45.7,37.6,30.10,ENE,57,2.5,2.5,73,0.00,,,0.00,meteobridge,2018-01-18 12:41:00,
2018-01-18 04:46:00,45.5,37.4,30.09,NNW,345,3.1,3.1,73,0.00,,,0.00,meteobridge,2018-01-18 12:46:00,
2018-01-18 04:51:00,45.3,37.2,30.09,SSW,201,1.3,3.6,73,0.00,,,0.00,meteobridge,2018-01-18 12:51:00,
2018-01-18 04:57:00,45.3,37.2,30.09,SE,128,0.0,4.7,73,0.00,,,0.00,meteobridge,2018-01-18 12:57:00,
2018-01-18 05:01:00,46.0,37.6,30.09,West,261,2.0,3.1,72,0.00,,,0.00,meteobridge,2018-01-18 13:01:00,
2018-01-18 05:06:00,46.6,37.8,30.09,NNW,343,3.1,3.6,71,0.00,,,0.00,meteobridge,2018-01-18 13:06:00,
2018-01-18 05:11:00,47.1,38.1,30.09,WNW,282,2.5,3.6,71,0.00,,,0.00,meteobridge,2018-01-18 13:11:00,
2018-01-18 05:17:00,47.5,38.1,30.09,ESE,122,3.6,5.1,70,0.00,,,0.00,meteobridge,2018-01-18 13:17:00,
2018-01-18 05:22:00,48.2,38.5,30.09,NNW,328,1.3,4.7,69,0.00,,,0.00,meteobridge,2018-01-18 13:22:00,
2018-01-18 05:27:00,48.4,38.7,30.09,NNE,33,2.5,4.3,69,0.00,,,0.00,meteobridge,2018-01-18 13:27:00,
2018-01-18 05:33:00,49.1,39.0,30.09,SSW,200,0.0,3.6,68,0.00,,,0.00,meteobridge,2018-01-18 13:33:00,
2018-01-18 05:37:00,49.6,39.2,30.09,ESE,106,2.0,6.5,67,0.00,,,0.00,meteobridge,2018-01-18 13:37:00,
2018-01-18 05:43:00,49.8,38.8,30.08,WNW,287,2.9,4.3,66,0.00,,,0.00,meteobridge,2018-01-18 13:43:00,
2018-01-18 05:47:00,49.8,38.8,30.08,SSE,163,0.0,2.5,66,0.00,,,0.00,meteobridge,2018-01-18 13:47:00,
2018-01-18 05:52:00,49.8,38.8,30.08,East,84,3.1,5.4,66,0.00,,,0.00,meteobridge,2018-01-18 13:52:00,
2018-01-18 05:58:00,50.0,39.0,30.08,SE,138,4.0,4.0,66,0.00,,,0.00,meteobridge,2018-01-18 13:58:00,
2018-01-18 06:04:00,50.2,39.2,30.08,ESE,115,2.5,4.7,66,0.00,,,0.00,meteobridge,2018-01-18 14:04:00,
2018-01-18 06:08:00,50.4,39.4,30.08,ESE,117,2.5,5.1,66,0.00,,,0.00,meteobridge,2018-01-18 14:08:00,
2018-01-18 06:13:00,50.4,39.0,30.07,SSE,163,6.5,8.5,65,0.00,,,0.00,meteobridge,2018-01-18 14:13:00,
2018-01-18 06:19:00,50.4,39.4,30.07,ESE,121,4.0,6.9,66,0.00,,,0.00,meteobridge,2018-01-18 14:19:00,
2018-01-18 06:25:00,50.7,39.4,30.07,South,187,4.3,5.8,65,0.00,,,0.00,meteobridge,2018-01-18 14:25:00,
2018-01-18 06:30:00,51.1,39.4,30.07,WSW,247,2.0,2.9,64,0.00,,,0.00,meteobridge,2018-01-18 14:30:00,
2018-01-18 06:35:00,50.9,39.6,30.07,West,265,2.0,2.9,65,0.00,,,0.00,meteobridge,2018-01-18 14:35:00,
2018-01-18 06:39:00,50.5,39.6,30.07,West,263,0.0,0.0,66,0.00,,,0.00,meteobridge,2018-01-18 14:39:00,
2018-01-18 06:45:00,49.8,38.8,30.08,NW,312,2.0,4.3,66,0.00,,,0.00,meteobridge,2018-01-18 14:45:00,
2018-01-18 06:50:00,49.6,39.2,30.08,ENE,65,0.0,5.4,67,0.00,,,0.00,meteobridge,2018-01-18 14:50:00,
2018-01-18 06:55:00,49.5,39.0,30.08,South,181,1.8,4.7,67,0.00,,,0.00,meteobridge,2018-01-18 14:55:00,
2018-01-18 06:59:00,49.3,38.8,30.08,West,276,3.6,4.3,67,0.00,,,0.00,meteobridge,2018-01-18 14:59:00,
2018-01-18 07:05:00,49.3,39.2,30.08,East,82,3.6,3.6,68,0.00,,,0.00,meteobridge,2018-01-18 15:05:00,
2018-01-18 07:11:00,48.7,38.7,30.08,West,279,1.8,1.8,68,0.00,,,0.00,meteobridge,2018-01-18 15:11:00,
2018-01-18 07:16:00,48.4,38.7,30.08,West,271,2.5,3.6,69,0.00,,,0.00,meteobridge,2018-01-18 15:16:00,
2018-01-18 07:21:00,47.8,38.5,30.08,NW,305,1.8,2.9,70,0.00,,,0.00,meteobridge,2018-01-18 15:21:00,
2018-01-18 07:27:00,47.5,38.1,30.08,WSW,243,2.5,3.6,70,0.00,,,0.00,meteobridge,2018-01-18 15:27:00,
2018-01-18 07:33:00,47.1,38.1,30.07,South,174,1.8,2.9,71,0.00,,,0.00,meteobridge,2018-01-18 15:33:00,
2018-01-18 07:37:00,46.8,38.3,30.07,WNW,300,0.0,4.7,72,0.00,,,0.00,meteobridge,2018-01-18 15:37:00,
2018-01-18 07:43:00,46.6,38.5,30.07,SSW,195,0.0,3.6,73,0.00,,,0.00,meteobridge,2018-01-18 15:43:00,
2018-01-18 07:48:00,46.2,38.5,30.07,SSW,198,5.1,5.1,74,0.00,,,0.00,meteobridge,2018-01-18 15:48:00,
2018-01-18 07:53:00,46.2,38.5,30.07,WNW,290,0.0,2.9,74,0.00,,,0.00,meteobridge,2018-01-18 15:53:00,
2018-01-18 07:59:00,46.6,38.5,30.07,WNW,292,1.8,2.9,73,0.00,,,0.00,meteobridge,2018-01-18 15:59:00,
2018-01-18 08:04:00,46.8,38.5,30.07,West,265,4.3,4.7,73,0.00,,,0.00,meteobridge,2018-01-18 16:04:00,
2018-01-18 08:09:00,47.1,38.8,30.07,NE,35,1.8,4.0,73,0.00,,,0.00,meteobridge,2018-01-18 16:09:00,
2018-01-18 08:14:00,47.3,39.0,30.07,NNW,327,3.1,3.1,73,0.00,,,0.00,meteobridge,2018-01-18 16:14:00,
2018-01-18 08:20:00,47.5,38.8,30.07,NE,36,4.7,5.8,72,0.00,,,0.00,meteobridge,2018-01-18 16:20:00,
2018-01-18 08:25:00,47.8,38.8,30.07,WNW,302,2.0,4.0,71,0.00,,,0.00,meteobridge,2018-01-18 16:25:00,
2018-01-18 08:31:00,49.6,38.7,30.07,North,354,3.6,6.5,66,0.00,,,0.00,meteobridge,2018-01-18 16:31:00,
2018-01-18 08:36:00,50.7,39.7,30.07,NE,38,4.0,4.0,66,0.00,,,0.00,meteobridge,2018-01-18 16:36:00,
2018-01-18 08:41:00,51.4,40.1,30.07,SE,140,2.5,3.1,65,0.00,,,0.00,meteobridge,2018-01-18 16:41:00,
2018-01-18 08:46:00,52.0,39.7,30.07,WSW,258,3.1,6.3,63,0.00,,,0.00,meteobridge,2018-01-18 16:46:00,
2018-01-18 08:50:00,52.3,40.5,30.07,SSE,147,0.0,0.0,64,0.00,,,0.00,meteobridge,2018-01-18 16:50:00,
2018-01-18 08:55:00,52.5,40.3,30.07,ENE,60,1.8,4.3,63,0.00,,,0.00,meteobridge,2018-01-18 16:55:00,
2018-01-18 09:00:00,52.9,40.6,30.06,NE,35,2.9,5.4,63,0.00,,,0.00,meteobridge,2018-01-18 17:00:00,
2018-01-18 09:05:00,53.2,40.6,30.06,ESE,123,2.0,3.1,62,0.00,,,0.00,meteobridge,2018-01-18 17:05:00,
2018-01-18 09:11:00,54.0,38.7,30.06,SE,129,12.5,17.4,56,0.00,,,0.00,meteobridge,2018-01-18 17:11:00,
2018-01-18 09:15:00,54.9,38.1,30.06,WSW,257,2.5,9.6,53,0.00,,,0.00,meteobridge,2018-01-18 17:15:00,
2018-01-18 09:21:00,55.6,39.2,30.06,WSW,254,2.9,4.7,54,0.00,,,0.00,meteobridge,2018-01-18 17:21:00,